Location: Orangeville
(43.9200°N, 80.0943°W)
Time: 09:12:20
(UTC-05:00)

ISS - Pass Details

Date: 04 December 2021
Orbit: 413 x 422 km, 51.6° (Epoch: 24 January)

Event Time Altitude Azimuth Distance (km) Brightness Sun altitude
Rises 18:03:54 0° 303° (WNW) 2,383 0.7 -14.1°
Reaches altitude 10° 18:06:03 10° 308° (NW) 1,514 -0.5 -14.5°
Maximum altitude 18:09:24 53° 26° (NNE) 525 -3.6 -15.0°
Enters shadow 18:10:34 34° 85° (E) 722 -3.1 -15.2°
